This is the latest recevied weather packets stored in our database for station/object CALDNA-WX. If no packets are shown the sender has not sent any weather packets the latest 10 day(s).
| Time | Temp. | Humidity | Pressure | Rain* | Wind** | Luminosity | Snow |
|---|---|---|---|---|---|---|---|
| 1778079654 | 8.89° C | 48% | 985.6 hPa | 0 mm | - | - | - |
| 1778078727 | 8.89° C | 53% | 985.8 hPa | 0 mm | - | - | - |
| 1778077844 | 8.33° C | 53% | 985.8 hPa | 0 mm | - | - | - |
| 1778076927 | 8.33° C | 53% | 985.8 hPa | 0 mm | - | - | - |
| 1778076051 | 7.78° C | 50% | 985.3 hPa | 0 mm | - | - | - |
| 1778075123 | 7.22° C | 61% | 984.8 hPa | 0 mm | - | - | - |
| 1778074243 | 6.67° C | 61% | 984.8 hPa | 0 mm | - | - | - |
| 1778073325 | 6.67° C | 61% | 984.8 hPa | 0 mm | - | - | - |
| 1778072448 | 6.11° C | 61% | 984.8 hPa | 0 mm | - | - | - |
| 1778071527 | 5.56° C | 71% | 983.7 hPa | 0 mm | - | - | - |
| 1778070644 | 5° C | 71% | 983.7 hPa | 0 mm | - | - | - |
| 1778069728 | 5° C | 71% | 983.7 hPa | 0 mm | - | - | - |
| 1778068855 | 4.44° C | 71% | 983.7 hPa | 0 mm | - | - | - |
| 1778067926 | 3.89° C | 75% | 983.1 hPa | 0 mm | - | - | - |
| 1778067041 | 3.33° C | 74% | 983 hPa | 0 mm | - | - | - |
| 1778066124 | 2.78° C | 74% | 983 hPa | 0 mm | - | - | - |
| 1778065251 | 2.78° C | 74% | 983 hPa | 0 mm | - | - | - |
| 1778064324 | 2.78° C | 70% | 983 hPa | 0 mm | - | - | - |
| 1778063441 | 2.78° C | 70% | 983 hPa | 0 mm | - | - | - |
| 1778062524 | 2.78° C | 70% | 983 hPa | 0 mm | - | - | - |
| 1778061652 | 2.78° C | 70% | 983 hPa | 0 mm | - | - | - |
| 1778060724 | 3.33° C | 67% | 982 hPa | 0 mm | - | - | - |
| 1778059840 | 3.33° C | 67% | 982.3 hPa | 0 mm | - | - | - |
| 1778058924 | 3.33° C | 67% | 982.3 hPa | 0 mm | - | - | - |
| 1778058053 | 3.89° C | 67% | 982.3 hPa | 0 mm | - | - | - |
* Rain latest hour (hover to see other rain measurements)
** Current wind speed in m/s (hover to see current wind gust speed)